FREGAT DEB

Satellite information

Favourite Embed

Satellite Type and Status

DEBRISIN ORBIT

Key statistics

Satellite FREGAT DEB at a glance.

Uptime

5221

Days in orbit

Revolutions

≈ 10.6

Per day

Orbit

MEO

Medium Earth Orbit

Inclination

51.5

Latest

Satellite identification and parameters

Extended collection of information and parameters for FREGAT DEB.

Object identification

Identified? True

Debris? True

Object name: FREGAT DEB

International designator: 2011-037CB

Object number (NORAD): 45841

Object ID (CCSDS): 45841

Country: COMMONWEALTH OF INDEPENDENT STATES (CIS)

Current information (Y/N): Y

RCS size: SMALL

Orbital parameters

Period: 135.917 minutes

Inclination: 51.5095 deg

SMA: 8756.757 km

Apoapsis: 4066.205 km

Periapsis: 691.038 km

RAAN: 4.9236 deg

Eccentricy: 0.19271793

Argument of periapsis: 50.7191 deg

Mean anomaly: 324.9323 deg

Mean motion: 10.59468018 rev/day

Mean motion (dot): 0.00000187 rev/day2

B* drag term: 0.00044042557 1/REarth

Two-line elements (TLE)

Creation date: Nov. 1, 2025, 7:40 p.m.

Reference frame: TEME

Reference center: EARTH

Epoch: Nov. 1, 2025, 10:55 a.m. UTC

TLE line 0: 0 FREGAT DEB

TLE line 1: 1 45841U 11037CB 25305.45540244 .00000187 00000-0 44043-3 0 9991

TLE line 2: 2 45841 51.5095 4.9236 1927179 50.7191 324.9323 10.59468018209360

Live tracking on map

Real-time ground track for satellite FREGAT DEB.

In-orbit conjunctions

A list of the most updated potential collisions computed for object FREGAT DEB.

Target Orbit TCA Probability of collision Miss distance Type
SL-8 DEB * LEO 2024-09-07 03:45:35 0.0001930079 151.0 (m) DEBRIS

Associated space launch

The RadioAstron is an international space Very Long Baseline Interferometry project led by the Astro Space Center of Lebedev Physical Institute in Moscow, Russia. The aim of the mission is to use the Spektr-R space telescope to conduct interferometer observations in conjunction with the global ground radio telescope network in order to obtain images, coordinates, motions and evolution of angular structure of different radio emitting objects in the Universe with the extraordinary high angular resolution.

FREGAT DEB was lifted into orbit during the mission ‘Zenit-3F | Spektr-R (RadioAstron)’, on board a Zenit 3F space rocket.

The launch took place on July 18, 2011, 2:31 a.m. from 45/1.

For more information about the launch, click the button.

Launch to space Zenit-3F | Spektr-R (RadioAstron)
Zenit-3F | Spektr-R (RadioAstron)

Agency: N/A

Status: Launch Successful

Launch date: July 18, 2011, 2:31 a.m. UTC

Rocket: Zenit 3F

Launch pad: 45/1

Location: Baikonur Cosmodrome, Republic of Kazakhstan

...

Latest news about this satellite

There are no fresh news available about this satellite. Check back as we update our databases every day.


Newsletter sign-up

Weekly statistics, charts and insights to help you stay on top of the space industry.